Overview Statistics Trail Chart Weather Telemetry Raw packets
 

This is the latest recevied weather packets stored in our database for station/object K6CED. If no packets are shown the sender has not sent any weather packets the latest 10 day(s).

<< 40 41 42 43 44 45 46 >>
Time Temp. Humidity Pressure Rain* Wind** Luminosity Snow
1788397001 25.56° C 39% 1016.5 hPa 0 mm - 100 W/m² -
1788396697 26.11° C 38% 1016.4 hPa 0 mm - 109 W/m² -
1788396392 26.67° C 38% 1016.5 hPa 0 mm - 108 W/m² -
1788396086 26.67° C 39% 1016.4 hPa 0 mm - 126 W/m² -
1788395781 26.67° C 39% 1016.2 hPa 0 mm - 147 W/m² -
1788395477 26.11° C 37% 1016.2 hPa 0 mm - 160 W/m² -
1788395172 27.22° C 39% 1016.4 hPa 0 mm - 184 W/m² -
1788394866 27.22° C 37% 1016.4 hPa 0 mm - 198 W/m² -
1788394561 27.78° C 38% 1016.2 hPa 0 mm - 217 W/m² -
1788394260 27.22° C 38% 1016.3 hPa 0 mm - 239 W/m² -
1788393956 27.78° C 38% 1016.4 hPa 0 mm - 263 W/m² -
1788393649 27.22° C 39% 1016.3 hPa 0 mm - 288 W/m² -
1788393344 27.22° C 40% 1016.5 hPa 0 mm - 305 W/m² -
1788393038 28.33° C 38% 1016.3 hPa 0 mm - 318 W/m² -
1788392733 28.33° C 39% 1016.4 hPa 0 mm - 330 W/m² -
1788392431 28.33° C 38% 1016.3 hPa 0 mm - 337 W/m² -
1788392125 28.89° C 36% 1016.4 hPa 0 mm - 343 W/m² -
1788391815 28.89° C 36% 1016.5 hPa 0 mm - 354 W/m² -
1788391514 29.44° C 34% 1016.6 hPa 0 mm - 371 W/m² -
1788391208 29.44° C 30% 1016.5 hPa 0 mm - 386 W/m² -
1788390903 30° C 31% 1016.4 hPa 0 mm - 404 W/m² -
1788390598 29.44° C 31% 1016.7 hPa 0 mm - 427 W/m² -
1788390291 29.44° C 32% 1016.7 hPa 0 mm - 458 W/m² -
1788389985 30° C 29% 1016.7 hPa 0 mm - 477 W/m² -
1788389681 30° C 28% 1016.5 hPa 0 mm - 499 W/m² -

* Rain latest hour (hover to see other rain measurements)
** Current wind speed in m/s (hover to see current wind gust speed)